When you browse on this site, cookies collect data to enhance your experience and personalize the content and advertising you see.
Visit our Privacy Policy to learn more. By continuing to use the site, you agree to this use of cookies and data.
  • In Österreich
  • Länderverzeichnis
  • Für 7 Tage
  • Wassertemperatur
  • Wetterkarte
  • News
  • Widgets
  • user-avatar
    Anmelden

    Stündliche Wetter Nagornyy

    Heute, 1 Juni, Montag

    Zeit Temperatur Niederschläge Wind Luftdruck Luftfeuchtigkeit
    00:00 +17°C° 0 mm 4 m/S 743 mmHg 74%
    01:00 +15°C° 0 mm 4 m/S 743 mmHg 75%
    02:00 +15°C° 0 mm 4 m/S 743 mmHg 79%
    03:00 +14°C° 0 mm 4 m/S 743 mmHg 82%
    04:00 +14°C° 0 mm 4 m/S 743 mmHg 84%
    05:00 +15°C° 0 mm 4 m/S 743 mmHg 82%
    06:00 +15°C° 0 mm 5 m/S 744 mmHg 79%
    07:00 +16°C° 0 mm 5 m/S 744 mmHg 76%
    08:00 +17°C° 0 mm 6 m/S 744 mmHg 71%
    09:00 +20°C° 0 mm 6 m/S 745 mmHg 66%
    10:00 +21°C° 0 mm 6 m/S 745 mmHg 61%
    11:00 +21°C° 0 mm 6 m/S 745 mmHg 57%
    12:00 +22°C° 0 mm 6 m/S 745 mmHg 54%
    13:00 +23°C° 0 mm 6 m/S 745 mmHg 51%
    14:00 +23°C° 0 mm 6 m/S 745 mmHg 50%
    15:00 +23°C° 0 mm 6 m/S 745 mmHg 50%
    16:00 +23°C° 0 mm 6 m/S 745 mmHg 50%
    17:00 +22°C° 0.1 mm 5 m/S 745 mmHg 55%
    18:00 +22°C° 0.1 mm 4 m/S 745 mmHg 60%
    19:00 +21°C° 0.1 mm 3 m/S 745 mmHg 65%
    20:00 +19°C° 0 mm 2 m/S 745 mmHg 69%
    21:00 +18°C° 0 mm 2 m/S 746 mmHg 73%
    22:00 +16°C° 0 mm 1 m/S 746 mmHg 77%
    23:00 +16°C° 0 mm 1 m/S 746 mmHg 78%

    Morgen, 2 Juni, Dienstag

    Zeit Temperatur Niederschläge Wind Luftdruck Luftfeuchtigkeit
    00:00 +16°C° 0 mm 1 m/S 746 mmHg 80%
    01:00 +14°C° 0 mm 0 m/S 746 mmHg 81%
    02:00 +14°C° 0 mm 0 m/S 746 mmHg 83%
    03:00 +13°C° 0 mm 0 m/S 746 mmHg 84%
    04:00 +13°C° 0 mm 0 m/S 747 mmHg 85%
    05:00 +14°C° 0 mm 0 m/S 747 mmHg 81%
    06:00 +16°C° 0 mm 0 m/S 746 mmHg 77%
    07:00 +17°C° 0 mm 0 m/S 746 mmHg 72%
    08:00 +18°C° 0 mm 0 m/S 747 mmHg 66%
    09:00 +20°C° 0 mm 0 m/S 747 mmHg 61%
    10:00 +21°C° 0 mm 0 m/S 747 mmHg 55%
    11:00 +22°C° 0 mm 0 m/S 747 mmHg 51%
    12:00 +23°C° 0 mm 0 m/S 747 mmHg 47%
    13:00 +23°C° 0 mm 0 m/S 747 mmHg 43%
    14:00 +25°C° 0 mm 2 m/S 747 mmHg 49%
    15:00 +24°C° 0 mm 3 m/S 747 mmHg 54%
    16:00 +22°C° 0 mm 4 m/S 747 mmHg 60%
    17:00 +21°C° 0 mm 4 m/S 747 mmHg 63%
    18:00 +21°C° 0 mm 4 m/S 747 mmHg 67%
    19:00 +20°C° 0 mm 4 m/S 746 mmHg 71%
    20:00 +19°C° 0 mm 4 m/S 746 mmHg 74%
    21:00 +18°C° 0 mm 4 m/S 746 mmHg 77%
    22:00 +17°C° 0 mm 4 m/S 746 mmHg 80%
    23:00 +15°C° 0 mm 4 m/S 746 mmHg 80%

    übermorgen, 3 Juni, Mittwoch

    Zeit Temperatur Niederschläge Wind Luftdruck Luftfeuchtigkeit
    00:00 +15°C° 0 mm 4 m/S 746 mmHg 80%
    01:00 +14°C° 0 mm 4 m/S 745 mmHg 80%
    02:00 +14°C° 0 mm 4 m/S 745 mmHg 79%
    03:00 +14°C° 0 mm 4 m/S 745 mmHg 78%
    04:00 +14°C° 0 mm 3 m/S 745 mmHg 78%
    05:00 +14°C° 0 mm 4 m/S 745 mmHg 76%
    06:00 +15°C° 0 mm 4 m/S 745 mmHg 74%
    07:00 +16°C° 0 mm 5 m/S 745 mmHg 73%
    08:00 +19°C° 0 mm 4 m/S 745 mmHg 69%
    09:00 +20°C° 0 mm 4 m/S 745 mmHg 65%
    10:00 +22°C° 0 mm 4 m/S 745 mmHg 60%
    11:00 +23°C° 0 mm 5 m/S 745 mmHg 57%
    12:00 +25°C° 0 mm 5 m/S 745 mmHg 54%
    13:00 +26°C° 0 mm 5 m/S 744 mmHg 50%
    14:00 +26°C° 0 mm 5 m/S 744 mmHg 51%
    15:00 +26°C° 0 mm 5 m/S 744 mmHg 52%
    16:00 +26°C° 0 mm 5 m/S 744 mmHg 53%
    17:00 +25°C° 0 mm 5 m/S 744 mmHg 58%
    18:00 +23°C° 0 mm 6 m/S 744 mmHg 63%
    19:00 +22°C° 0 mm 6 m/S 744 mmHg 69%
    20:00 +21°C° 0 mm 6 m/S 744 mmHg 72%
    21:00 +19°C° 0 mm 6 m/S 743 mmHg 75%
    22:00 +17°C° 0 mm 5 m/S 743 mmHg 78%
    23:00 +16°C° 0 mm 5 m/S 743 mmHg 80%

    4 Juni, Donnerstag

    Zeit Temperatur Niederschläge Wind Luftdruck Luftfeuchtigkeit
    00:00 +16°C° 0 mm 5 m/S 743 mmHg 82%
    01:00 +15°C° 0 mm 5 m/S 743 mmHg 83%
    02:00 +15°C° 0 mm 5 m/S 743 mmHg 85%
    03:00 +15°C° 0 mm 5 m/S 743 mmHg 86%
    04:00 +15°C° 0 mm 5 m/S 743 mmHg 87%
    05:00 +16°C° 0 mm 6 m/S 743 mmHg 82%
    06:00 +17°C° 0 mm 6 m/S 742 mmHg 77%
    07:00 +18°C° 0 mm 7 m/S 742 mmHg 72%
    08:00 +20°C° 0 mm 7 m/S 742 mmHg 68%
    09:00 +21°C° 0 mm 7 m/S 742 mmHg 64%
    10:00 +23°C° 0 mm 7 m/S 742 mmHg 61%
    11:00 +24°C° 0 mm 7 m/S 743 mmHg 58%
    12:00 +24°C° 0 mm 7 m/S 743 mmHg 55%
    13:00 +26°C° 0 mm 7 m/S 743 mmHg 52%
    14:00 +26°C° 0 mm 7 m/S 743 mmHg 54%
    15:00 +24°C° 0 mm 7 m/S 743 mmHg 57%
    16:00 +24°C° 0 mm 7 m/S 743 mmHg 59%
    17:00 +22°C° 0.5 mm 8 m/S 743 mmHg 66%
    18:00 +20°C° 0.5 mm 8 m/S 744 mmHg 73%
    19:00 +18°C° 0.5 mm 8 m/S 744 mmHg 80%
    20:00 +18°C° 0.1 mm 8 m/S 744 mmHg 77%
    21:00 +17°C° 0.1 mm 8 m/S 744 mmHg 74%
    22:00 +17°C° 0.1 mm 8 m/S 744 mmHg 70%
    23:00 +17°C° 0.1 mm 8 m/S 744 mmHg 70%

    5 Juni, Freitag

    Zeit Temperatur Niederschläge Wind Luftdruck Luftfeuchtigkeit
    00:00 +17°C° 0.1 mm 8 m/S 744 mmHg 69%
    01:00 +17°C° 0.1 mm 8 m/S 744 mmHg 69%
    02:00 +16°C° 0.5 mm 7 m/S 745 mmHg 71%
    03:00 +15°C° 0.5 mm 7 m/S 745 mmHg 73%
    04:00 +15°C° 0.5 mm 6 m/S 745 mmHg 76%
    05:00 +14°C° 0.2 mm 6 m/S 745 mmHg 74%
    06:00 +14°C° 0.2 mm 6 m/S 745 mmHg 73%
    07:00 +14°C° 0.2 mm 6 m/S 746 mmHg 72%
    08:00 +14°C° 0 mm 6 m/S 746 mmHg 71%
    09:00 +15°C° 0 mm 6 m/S 746 mmHg 71%
    10:00 +15°C° 0 mm 6 m/S 746 mmHg 71%
    11:00 +14°C° 0.5 mm 6 m/S 747 mmHg 74%
    12:00 +14°C° 0.5 mm 7 m/S 747 mmHg 77%
    13:00 +14°C° 0.5 mm 7 m/S 747 mmHg 80%
    14:00 +13°C° 0.3 mm 8 m/S 747 mmHg 80%
    15:00 +13°C° 0.3 mm 9 m/S 747 mmHg 79%
    16:00 +13°C° 0.3 mm 9 m/S 747 mmHg 79%
    17:00 +13°C° 0 mm 9 m/S 747 mmHg 78%
    18:00 +13°C° 0 mm 9 m/S 747 mmHg 77%
    19:00 +13°C° 0 mm 9 m/S 747 mmHg 76%
    20:00 +13°C° 0 mm 8 m/S 747 mmHg 73%
    21:00 +13°C° 0 mm 8 m/S 747 mmHg 70%
    22:00 +15°C° 0 mm 8 m/S 747 mmHg 67%
    23:00 +15°C° 0 mm 7 m/S 747 mmHg 66%

    6 Juni, Samstag

    Zeit Temperatur Niederschläge Wind Luftdruck Luftfeuchtigkeit
    00:00 +15°C° 0 mm 7 m/S 747 mmHg 65%
    01:00 +15°C° 0 mm 6 m/S 747 mmHg 64%
    02:00 +14°C° 0.1 mm 6 m/S 747 mmHg 67%
    03:00 +14°C° 0.1 mm 6 m/S 747 mmHg 70%
    04:00 +13°C° 0.1 mm 6 m/S 747 mmHg 73%
    05:00 +14°C° 0.1 mm 6 m/S 747 mmHg 72%
    06:00 +14°C° 0.1 mm 6 m/S 747 mmHg 71%
    07:00 +14°C° 0.1 mm 6 m/S 747 mmHg 70%
    08:00 +14°C° 1 mm 5 m/S 747 mmHg 75%
    09:00 +13°C° 1 mm 5 m/S 747 mmHg 80%
    10:00 +13°C° 1 mm 4 m/S 747 mmHg 85%
    11:00 +13°C° 2.6 mm 4 m/S 747 mmHg 87%
    12:00 +13°C° 2.6 mm 5 m/S 747 mmHg 89%
    13:00 +12°C° 2.6 mm 5 m/S 748 mmHg 91%
    14:00 +13°C° 0.3 mm 5 m/S 748 mmHg 89%
    15:00 +13°C° 0.3 mm 5 m/S 748 mmHg 87%
    16:00 +13°C° 0.3 mm 5 m/S 748 mmHg 86%
    17:00 +13°C° 0 mm 4 m/S 748 mmHg 86%
    18:00 +13°C° 0 mm 4 m/S 748 mmHg 87%
    19:00 +13°C° 0 mm 4 m/S 748 mmHg 88%
    20:00 +13°C° 0 mm 3 m/S 748 mmHg 89%
    21:00 +12°C° 0 mm 3 m/S 748 mmHg 91%
    22:00 +12°C° 0 mm 3 m/S 748 mmHg 92%
    23:00 +11°C° 0 mm 3 m/S 748 mmHg 92%
    Mehr zeigen